Regional Weather Roundup
Issued by NWS

Home | Current Version | Previous Version | Text Only | Print | Product List | Glossary On
Versions: 1 2 3 4 5 6 7 8 9 10 11 12 13 14 15 16 17 18 19 20 21 22 23 24 25 26 27 28 29 30 31 32 33 34 35 36 37 38 39 40 41 42 43 44 45 46 47 48 49 50
000
ASUS43 KTOP 080108
RWRKS

WEATHER ROUNDUP FOR KANSAS
NATIONAL WEATHER SERVICE GOODLAND KS
700 PM CST WED DEC 07 2016

NOTE:  "FAIR" INDICATES FEW OR NO CLOUDS BELOW 12,000 FEET WITH NO
SIGNIFICANT WEATHER AND/OR OBSTRUCTIONS TO VISIBILITY.

KSZ001>006-013>018-027>032-041>047-080200-
NORTHWEST KANSAS

CITY           SKY/WX    TMP DP  RH WIND       PRES   REMARKS
GOODLAND       PTCLDY     8   4  83 NW12      30.40R WCI  -7
HAYS           CLEAR     18  13  80 NW7       30.47R
HILL CITY      CLEAR     15   9  76 NW7       30.47R
RUSSELL        CLEAR     16  12  84 NW7       30.45R
$$

KSZ061>065-074>080-084>089-080200-
SOUTHWEST KANSAS

CITY           SKY/WX    TMP DP  RH WIND       PRES   REMARKS
DODGE CITY     CLOUDY    22  17  81 N14       30.41R WCI   9
ELKHART          N/A     18   6  59 N9          N/A
GARDEN CITY    CLOUDY    20  15  81 N15       30.42R WCI   6
GREAT BEND     CLOUDY    23  16  74 NW16      30.45R WCI  10
LIBERAL        CLOUDY    21  12  68 N15       30.39R WCI   8
PRATT          CLOUDY    20  15  79 N14       30.42R WCI   7
$$

KSZ066>073-081>083-090>101-080200-
SOUTHEAST KANSAS

CITY           SKY/WX    TMP DP  RH WIND       PRES   REMARKS
CHANUTE        MOCLDY    27  23  85 N9        30.41R
COFFEYVILLE    MOCLDY    28  24  85 N9        30.41R
HUTCHINSON     CLEAR     21  17  84 N7        30.44R
MEDICINE LODGE   N/A     23  17  78 N13       30.42R WCI  11
NEWTON         CLEAR     19  17  92 N7        30.43R
PARSONS        PTCLDY    27  23  85 N8        30.41R
WICHITA INTL   PTCLDY    25  19  78 N16       30.42R WCI  12
WICHITA JABRA  CLEAR     22  19  89 N10       30.42R WCI  11
WICHITA MCCONL CLEAR     24  19  81 N15       30.42R WCI  11
WINFIELD       CLEAR     27  21  78 N14       30.41R WCI  16
$$

KSZ007>012-019>026-033>040-048>060-102>105-080200-
NORTHEAST KANSAS

CITY           SKY/WX    TMP DP  RH WIND       PRES   REMARKS
CONCORDIA      CLEAR     20  10  65 NW7       30.45R
EMPORIA        CLEAR     22  18  85 NW7       30.42R
LAWRENCE       CLEAR     20  15  81 NW7       30.43R
MANHATTAN      CLEAR     21  11  65 CALM      30.45R
MARYSVILLE     CLEAR     19   9  63 NW5       30.42R
OLATHE IND     PTCLDY    24  16  71 NW12      30.40R WCI  13
OLATHE EXE     MOCLDY    24  15  68 NW9       30.39R
SALINA         CLEAR     20  14  77 NW8       30.46R
TOPEKA BILLARD CLEAR     24  13  62 W5        30.43R
TOPEKA FORBES  CLEAR     20  14  77 NW8       30.42R
$$



USA.gov is the U.S. government's official web portal to all federal, state and local government web resources and services.